[[{"header":{"parameterUnit":"m.s-1","parameterCategory":1,"la1":30.2991,"la2":30.254,"lo1":-89.0895,"lo2":-89.0444,"dy":0.0017,"dx":0.0017,"nx":28,"ny":28,"refTime":"2023-03-30T15:00:00:Z","depth":0,"parameterNumber":2,"parameterNumberName":"U-component_of_WINDS"},"data":[0,0,0,0,0,0,0,0,0,0,0,0,0,0,0,0,0,0,0,0,0,0,0,0,0,0,0,0,0,0,0,0,0,0,0,0,0,0,0,0,0,0,0,0,0,0,0,0,0,0,0,0,0,0,0,0,0,0,-4.5055,-4.5055,0,-4.5058,-4.5058,-4.5058,-4.4923,-4.4919,-4.4916,-4.4912,-4.4918,-4.4922,-4.4925,0,0,0,0,0,0,0,0,0,0,0,0,0,-4.4935,-4.4937,-4.5055,-4.5055,-4.5055,-4.5058,-4.5058,-4.5058,-4.4924,-4.4919,-4.4915,-4.4911,-4.4917,-4.4921,-4.4925,0,0,0,0,0,0,0,0,0,0,0,0,0,-4.4967,-4.4938,-4.5055,-4.4988,-4.4982,-4.5058,-4.5058,-4.5058,-4.4925,-4.4919,-4.4914,-4.4909,-4.4916,-4.4921,-4.4926,-4.5067,0,0,-4.4942,-4.4944,0,0,0,0,0,0,0,0,-4.4966,-4.4972,-4.4998,-4.4993,-4.4986,-4.4985,-4.5018,-4.5061,-4.4926,-4.4947,-4.4912,-4.4906,-4.4945,-4.4947,-4.496,-4.5067,-4.5067,-4.4943,-4.4946,-4.4948,-4.4949,0,0,0,0,0,0,0,-4.4964,-4.4971,-4.5056,-4.4999,-4.4992,-4.4959,-4.4958,-4.5025,-4.4976,-4.4944,-4.4935,-4.4937,-4.4941,-4.4955,-4.4959,-4.5067,-4.4942,-4.4947,-4.495,-4.4952,-4.529,-4.5296,0,0,0,0,0,0,-4.497,-4.497,-4.5056,-4.5056,-4.4963,-4.4965,-4.4964,-4.4991,-4.4975,-4.4967,-4.4941,-4.493,-4.4949,-4.4953,-4.4959,-4.5122,-4.4948,-4.4953,-4.4956,-4.5285,-4.5292,-4.5298,0,0,0,0,0,0,-4.4968,-4.4979,-4.5056,-4.5011,-4.5018,-4.4973,-4.5005,-4.4994,-4.5008,-4.4973,-4.4963,-4.4965,-4.4945,-4.4951,-4.5041,-4.5121,-4.4955,-4.496,-4.5278,-4.5287,-4.5295,-4.5451,0,0,0,0,0,0,-4.4965,-4.4979,-4.5032,-4.5013,-4.5021,-4.5138,-4.5009,-4.4998,-4.5017,-4.5003,-4.4992,-4.4986,-4.4941,-4.5034,-4.5046,-4.5125,-4.4964,-4.527,-4.5282,-4.5292,-4.5439,-4.5464,-4.5486,0,0,0,0,0,-4.4961,-4.5076,-4.5035,-4.5046,-4.5085,-4.5143,-4.5147,-4.5093,-4.5024,-4.5077,-4.5054,-4.4986,-4.511,-4.5044,-4.5057,-4.5139,-4.5265,-4.5278,-4.5291,-4.5428,-4.5459,-4.5486,0,0,0,0,0,0,-4.5106,-4.5072,-4.5026,-4.5138,-4.5144,-4.512,-4.5184,-4.5128,-4.5154,-4.514,-4.5072,-4.5071,-4.5171,-4.5164,-4.5091,-4.5274,-4.5175,-4.5192,-4.5275,-4.5305,-4.5328,-4.5328,-4.4969,0,0,0,0,0,-4.5151,-4.52,-4.5168,-4.5269,-4.5275,-4.523,-4.5253,-4.521,-4.5214,-4.5216,-4.52,-4.5207,-4.5247,-4.5275,-4.5311,-4.5437,-4.5433,-4.55,-4.5524,-4.5543,-4.5558,-4.5625,-4.5654,-4.5341,-4.5341,-4.534,0,0,-4.5244,-4.5232,-4.5267,-4.5298,-4.5298,-4.5351,-4.5233,-4.5293,-4.5332,-4.5225,-4.5309,-4.5298,-4.5301,-4.541,-4.5457,-4.5406,-4.5644,-4.556,-4.5576,-4.558,-4.5641,-4.5671,-4.5698,-4.535,-4.5348,-4.5347,0,0,-4.5441,-4.5436,-4.552,-4.5523,-4.5524,-4.5493,-4.5514,-4.5498,-4.5486,-4.5568,-4.549,-4.5535,-4.5606,-4.5612,-4.5624,-4.5824,-4.5763,-4.5838,-4.5962,-4.6028,-4.6052,-4.6074,-4.6145,-4.6172,-4.5853,-4.5853,-4.5853,0,-4.5557,-4.5632,-4.5571,-4.5637,-4.5654,-4.5559,-4.5645,-4.565,-4.5663,-4.5677,-4.5621,-4.5708,-4.5704,-4.5813,-4.5862,-4.5875,-4.5896,-4.5839,-4.6053,-4.6074,-4.6094,-4.6161,-4.6188,-4.5862,-4.5861,-4.586,-4.586,0,-4.5775,-4.5828,-4.5897,-4.5911,-4.5935,-4.6011,-4.5962,-4.5994,-4.595,-4.5926,-4.6012,-4.6003,-4.6035,-4.6058,-4.6016,-4.6162,-4.613,-4.6065,-4.5964,-4.6134,-4.6196,-4.6221,-4.5875,-4.5872,-4.5869,-4.5867,0,0,-4.6062,-4.6042,-4.6068,-4.6074,-4.6068,-4.6109,-4.6181,-4.6211,-4.624,-4.6253,-4.6312,-4.6374,-4.6314,-4.6328,-4.6286,-4.6344,-4.6503,-4.6271,-4.627,-4.6315,-4.6664,-4.6713,-4.6744,-4.6462,-4.6467,-4.6471,-4.6663,0,-4.6253,-4.6373,-4.6321,-4.6447,-4.6496,-4.6408,-4.647,-4.6474,-4.6454,-4.6493,-4.6471,-4.6516,-4.6433,-4.6441,-4.6494,-4.6473,-4.6573,-4.6458,-4.6517,-4.652,-4.6519,-4.6776,-4.6828,-4.7011,-4.6687,-4.6692,-4.6695,0,-4.6491,-4.6513,-4.6644,-4.663,-4.6649,-4.6706,-4.673,-4.6769,-4.6772,-4.6753,-4.6769,-4.6714,-4.6784,-4.6685,-4.6781,-4.6704,-4.6726,-4.6719,-4.6725,-4.6728,-4.6617,-4.6787,-4.7067,-4.7095,-4.6732,-4.6729,-4.6727,0,-4.6687,-4.675,-4.6836,-4.6844,-4.683,-4.6872,-4.6868,-4.6866,-4.6888,-4.691,-4.6924,-4.6954,-4.697,-4.6995,-4.695,-4.6882,-4.7053,-4.695,-4.704,-4.7042,-4.708,-4.7078,-4.7368,-4.7094,-4.7094,-4.7093,-4.7093,0,-4.6906,-4.6989,-4.6924,-4.6978,-4.7069,-4.7009,-4.7101,-4.7088,-4.7087,-4.7136,-4.7062,-4.7111,-4.7048,-4.7091,-4.7056,-4.7142,-4.715,-4.7137,-4.7127,-4.7143,-4.7145,-4.7156,-4.7142,-4.7101,-4.7099,-4.7098,-4.7096,0,-4.714,-4.71,-4.7188,-4.7168,-4.7165,-4.7234,-4.7216,-4.7265,-4.724,-4.7303,-4.7315,-4.7276,-4.7322,-4.728,-4.7324,-4.7301,-4.7415,-4.7386,-4.7413,-4.7405,-4.7498,-4.749,-4.7805,-4.7843,-4.7546,-4.7549,-4.7551,0,-4.7282,-4.7344,-4.7331,-4.7359,-4.7359,-4.7405,-4.7427,-4.7371,-4.7397,-4.7406,-4.7454,-4.7494,-4.7523,-4.7601,-4.7577,-4.7611,-4.7583,-4.7691,-4.7588,-4.7603,-4.7585,-4.7581,-4.7587,-4.7712,-4.7716,-4.7719,-4.7721,0,-4.7538,-4.7515,-4.755,-4.7578,-4.7606,-4.7626,-4.7639,-4.7667,-4.7609,-4.7642,-4.7688,-4.7711,-4.7757,-4.7798,-4.7824,-4.7821,-4.7762,-4.7754,-4.7776,-4.7794,-4.7807,-4.7801,-4.7471,-4.7747,-4.7744,-4.7742,-4.7741,-4.774,-4.773,-4.7782,-4.778,-4.7821,-4.7826,-4.7841,-4.7886,-4.7866,-4.7903,-4.7935,-4.79,-4.7957,-4.7959,-4.7988,-4.7992,-4.8037,-4.7991,-4.8024,-4.8032,-4.8041,-4.8055,-4.7801,-4.8041,-4.804,-4.804,-4.8039,-4.8038,0,-4.7982,-4.7977,-4.8016,-4.8037,-4.807,-4.8011,-4.8024,-4.8055,-4.8106,-4.8113,-4.8143,-4.8196,-4.8236,-4.8215,-4.825,-4.8289,-4.8263,-4.83,-4.8296,-4.8297,-4.8093,-4.807,-4.8321,-4.8321,-4.8321,-4.832,-4.832,-4.832,-4.8117,-4.8201,-4.8178,-4.8264,-4.8258,-4.8313,-4.8325,-4.8339,-4.8344,-4.8407,-4.8439,-4.8425,-4.8421,-4.8455,-4.8489,-4.8482,-4.8498,-4.8545,-4.8529,-4.8339,-4.8311,-4.8285,-4.8262,-4.8549,-4.8549,-4.8728,-4.873,-4.8731]},{"header":{"parameterUnit":"m.s-1","parameterCategory":1,"la1":30.2991,"la2":30.254,"lo1":-89.0895,"lo2":-89.0444,"dy":0.0017,"dx":0.0017,"nx":28,"ny":28,"refTime":"2023-03-30T15:00:00:Z","depth":0,"parameterNumber":3,"parameterNumberName":"V-component_of_WINDS"},"data":[0,0,0,0,0,0,0,0,0,0,0,0,0,0,0,0,0,0,0,0,0,0,0,0,0,0,0,0,0,0,0,0,0,0,0,0,0,0,0,0,0,0,0,0,0,0,0,0,0,0,0,0,0,0,0,0,0,0,-0.8001,-0.8,0,-0.7969,-0.7969,-0.7969,-0.7951,-0.7951,-0.7951,-0.7951,-0.7919,-0.7918,-0.7917,0,0,0,0,0,0,0,0,0,0,0,0,0,-0.8043,-0.8043,-0.8001,-0.8,-0.8,-0.7969,-0.7969,-0.7969,-0.7951,-0.7951,-0.7951,-0.7951,-0.7919,-0.7918,-0.7917,0,0,0,0,0,0,0,0,0,0,0,0,0,-0.802,-0.8043,-0.8001,-0.7987,-0.7986,-0.797,-0.7969,-0.7968,-0.7951,-0.7951,-0.7951,-0.7951,-0.7919,-0.7918,-0.7917,-0.7911,0,0,-0.7913,-0.7913,0,0,0,0,0,0,0,0,-0.8021,-0.8018,-0.799,-0.7988,-0.7987,-0.7964,-0.7972,-0.7949,-0.7951,-0.7964,-0.7951,-0.7951,-0.7934,-0.7931,-0.7926,-0.791,-0.7908,-0.7913,-0.7912,-0.7912,-0.7911,0,0,0,0,0,0,0,-0.8023,-0.8019,-0.7988,-0.7989,-0.7987,-0.7982,-0.7979,-0.7968,-0.795,-0.7963,-0.7962,-0.7958,-0.7933,-0.7927,-0.7925,-0.7908,-0.7913,-0.7912,-0.7911,-0.7911,-0.7883,-0.7883,0,0,0,0,0,0,-0.8027,-0.8021,-0.7989,-0.7987,-0.8004,-0.7982,-0.7978,-0.7971,-0.795,-0.7947,-0.7958,-0.7957,-0.7929,-0.7926,-0.7924,-0.7914,-0.7912,-0.7911,-0.791,-0.7883,-0.7883,-0.7883,0,0,0,0,0,0,-0.8028,-0.8024,-0.7991,-0.8004,-0.7999,-0.7981,-0.7974,-0.7971,-0.7965,-0.7946,-0.7943,-0.7956,-0.7929,-0.7925,-0.7914,-0.7912,-0.791,-0.7909,-0.7883,-0.7883,-0.7883,-0.7895,0,0,0,0,0,0,-0.8029,-0.8025,-0.8023,-0.8004,-0.7999,-0.7982,-0.7974,-0.797,-0.7963,-0.7961,-0.7943,-0.794,-0.7928,-0.7916,-0.7913,-0.7911,-0.7908,-0.7883,-0.7883,-0.7883,-0.7895,-0.7896,-0.7896,0,0,0,0,0,-0.8031,-0.8028,-0.8023,-0.8019,-0.7996,-0.7982,-0.7979,-0.7966,-0.7963,-0.796,-0.7948,-0.794,-0.7913,-0.7915,-0.7911,-0.7909,-0.7883,-0.7883,-0.7883,-0.7895,-0.7896,-0.7896,0,0,0,0,0,0,-0.8048,-0.8026,-0.802,-0.8011,-0.7999,-0.7979,-0.7976,-0.7968,-0.7956,-0.7955,-0.7939,-0.7935,-0.7925,-0.7916,-0.7918,-0.7901,-0.7897,-0.7896,-0.7907,-0.7908,-0.7909,-0.7911,-0.7907,0,0,0,0,0,-0.8051,-0.8042,-0.8023,-0.8017,-0.8011,-0.7994,-0.7988,-0.7979,-0.7965,-0.796,-0.7947,-0.7934,-0.7922,-0.7914,-0.7903,-0.7893,-0.7888,-0.789,-0.7891,-0.7891,-0.7891,-0.7883,-0.7883,-0.7882,-0.7882,-0.7882,0,0,-0.8057,-0.8044,-0.8039,-0.802,-0.8009,-0.7999,-0.799,-0.7981,-0.7973,-0.7958,-0.7946,-0.7936,-0.792,-0.7909,-0.7903,-0.7901,-0.7889,-0.7891,-0.7892,-0.7891,-0.7883,-0.7883,-0.7883,-0.7882,-0.7882,-0.7882,0,0,-0.8063,-0.8052,-0.8046,-0.8034,-0.8018,-0.8006,-0.8004,-0.7986,-0.7978,-0.7966,-0.7954,-0.7944,-0.7924,-0.7913,-0.7904,-0.7902,-0.7894,-0.7899,-0.7903,-0.7895,-0.7895,-0.7895,-0.7893,-0.7892,-0.7899,-0.7899,-0.7899,0,-0.8073,-0.8057,-0.8043,-0.8033,-0.8024,-0.801,-0.8002,-0.7992,-0.7972,-0.7966,-0.7964,-0.7937,-0.7926,-0.791,-0.791,-0.7904,-0.79,-0.7901,-0.7896,-0.7896,-0.7896,-0.7893,-0.7893,-0.7899,-0.7899,-0.7899,-0.7899,0,-0.8069,-0.8058,-0.8055,-0.8035,-0.8026,-0.8017,-0.8,-0.7993,-0.7984,-0.7972,-0.7958,-0.7943,-0.7927,-0.7923,-0.7915,-0.7906,-0.7904,-0.7899,-0.7895,-0.7897,-0.7894,-0.7893,-0.79,-0.79,-0.79,-0.79,0,0,-0.8086,-0.8057,-0.8056,-0.8046,-0.8025,-0.8016,-0.8006,-0.799,-0.7982,-0.7969,-0.7959,-0.7941,-0.7936,-0.7926,-0.7916,-0.7909,-0.7906,-0.7904,-0.7904,-0.7904,-0.7893,-0.7896,-0.7896,-0.79,-0.79,-0.79,-0.7894,0,-0.8088,-0.8069,-0.8055,-0.8041,-0.8029,-0.8014,-0.8005,-0.7991,-0.7979,-0.7967,-0.7954,-0.7941,-0.7936,-0.7929,-0.7922,-0.7908,-0.7904,-0.7908,-0.789,-0.7889,-0.7894,-0.7895,-0.7899,-0.7894,-0.7893,-0.7893,-0.7893,0,-0.8088,-0.8074,-0.8059,-0.8037,-0.8031,-0.8023,-0.8006,-0.7995,-0.7978,-0.7969,-0.7957,-0.7946,-0.7933,-0.793,-0.7911,-0.7914,-0.7905,-0.7897,-0.7897,-0.7894,-0.7891,-0.7891,-0.7892,-0.7891,-0.7891,-0.7891,-0.7891,0,-0.81,-0.8077,-0.8065,-0.8057,-0.8031,-0.8025,-0.8015,-0.7997,-0.7987,-0.7972,-0.7965,-0.7948,-0.7939,-0.7926,-0.791,-0.791,-0.7892,-0.7888,-0.7883,-0.7884,-0.788,-0.7881,-0.7879,-0.7876,-0.7876,-0.7876,-0.7876,0,-0.8103,-0.8094,-0.8069,-0.8062,-0.805,-0.8033,-0.8022,-0.801,-0.7994,-0.7982,-0.7968,-0.7958,-0.7938,-0.7924,-0.7912,-0.7896,-0.7893,-0.7885,-0.7881,-0.7885,-0.7886,-0.7879,-0.7879,-0.7876,-0.7876,-0.7876,-0.7876,0,-0.8115,-0.8099,-0.8083,-0.806,-0.8054,-0.8046,-0.8025,-0.8016,-0.8003,-0.7989,-0.7984,-0.7963,-0.7946,-0.7929,-0.7907,-0.7898,-0.7883,-0.7879,-0.7889,-0.7886,-0.7883,-0.7883,-0.7876,-0.7873,-0.7873,-0.7873,-0.7873,0,-0.8118,-0.811,-0.8086,-0.8077,-0.8066,-0.8052,-0.8041,-0.8023,-0.8013,-0.7991,-0.7984,-0.7966,-0.7951,-0.7924,-0.7906,-0.7888,-0.7883,-0.7882,-0.7881,-0.7884,-0.7881,-0.7882,-0.788,-0.7883,-0.7883,-0.7883,-0.7883,0,-0.8124,-0.8116,-0.8101,-0.8083,-0.8071,-0.8056,-0.804,-0.8033,-0.8012,-0.8,-0.7983,-0.7971,-0.7946,-0.7928,-0.7907,-0.7895,-0.7885,-0.7883,-0.7881,-0.7885,-0.789,-0.7886,-0.7889,-0.7884,-0.7883,-0.7883,-0.7883,-0.7883,-0.8131,-0.8122,-0.8103,-0.8086,-0.8072,-0.8057,-0.8047,-0.8032,-0.8017,-0.7995,-0.7985,-0.7967,-0.7947,-0.7918,-0.7906,-0.7891,-0.7888,-0.7885,-0.7884,-0.7884,-0.7884,-0.7893,-0.7887,-0.7887,-0.7887,-0.7887,-0.7887,0,-0.8135,-0.8121,-0.8106,-0.8084,-0.807,-0.8061,-0.8043,-0.8032,-0.8016,-0.7998,-0.7983,-0.7961,-0.7942,-0.7922,-0.7902,-0.7894,-0.7888,-0.7889,-0.7889,-0.7886,-0.7888,-0.7892,-0.7893,-0.7893,-0.7893,-0.7893,-0.7893,-0.7893,-0.8135,-0.812,-0.8109,-0.8085,-0.8071,-0.8053,-0.8043,-0.8028,-0.8014,-0.799,-0.7974,-0.7961,-0.7942,-0.792,-0.7902,-0.7896,-0.7889,-0.7891,-0.7884,-0.7886,-0.7886,-0.7886,-0.7888,-0.7889,-0.7889,-0.7882,-0.7882,-0.7882]}]]